Weather History for Burley, ID

Change the Weather History Date:

Wednesday, February 13, 2013

  Actual Average Record
Temperature  
Mean Temperature 39 °F 30 °F  
Max Temperature 46 °F 39 °F 62 °F (1967)
Min Temperature 31 °F 21 °F -9 °F (1949)
Degree Days  
Heating Degree Days 26 35  
Month to date heating degree days 431 468  
Since 1 July heating degree days 4276 4534  
Cooling Degree Days 0 0  
Month to date cooling degree days 0 0  
Year to date cooling degree days 0 0  
Moisture  
Dew Point 28 °F    
Average Humidity 68    
Maximum Humidity 78    
Minimum Humidity 58    
Precipitation  
Precipitation 0.00 in 0.02 in 0.36 in (1984)
Month to date precipitation 0.10 0.33  
Year to date precipitation 0.27 1.24  
Sea Level Pressure  
Sea Level Pressure 30.24 in    
Wind  
Wind Speed 16 mph (WSW)    
Max Wind Speed 25 mph    
Max Gust Speed 32 mph    
Visibility 10 miles    
Events      
T = Trace of Precipitation, MM = Missing Value Source: NWS Daily Summary

Daily Weather History Graph

Daily Weather History Graph

Search for Another Location

Airport:

Trip Planner

Search our weather history database for the weather conditions in past years. The results will help you decide how hot, cold, wet, or windy it might be!

Date:

Astronomy

Feb. 13, 2013 Rise Set
Actual Time 7:34 AM MST 6:05 PM MST
Civil Twilight 7:05 AM MST 6:34 PM MST
Nautical Twilight 6:32 AM MST 7:07 PM MST
Astronomical Twilight 5:59 AM MST 7:39 PM MST
Moon 8:59 AM MST (2/13) 10:18 PM MST (2/13)
Length of Visible Light 11h 28m
Length of Day
10h 30m
Waxing Crescent, 14% of the Moon is Illuminated
Feb 13
Waxing Crescent
Feb 17
First Quarter
Feb 25
Full
Mar 4
Last Quarter
Mar 11
New

Hourly Weather History & Observations

Time (MST) Temp. Windchill Dew Point Humidity Pressure Visibility Wind Dir Wind Speed Gust Speed Precip Events Conditions
12:53 AM 32.0 °F 23.6 °F 26.1 °F 79% 30.31 in 10.0 mi SW 10.4 mph - N/A   Clear
1:53 AM 30.9 °F 23.5 °F 25.0 °F 79% 30.31 in 10.0 mi SW 8.1 mph - N/A   Clear
2:53 AM 34.0 °F 23.8 °F 25.0 °F 70% 30.31 in 10.0 mi SW 16.1 mph - N/A   Clear
3:53 AM 35.1 °F 26.4 °F 26.1 °F 70% 30.29 in 10.0 mi SW 12.7 mph 23.0 mph N/A   Overcast
4:53 AM 34.0 °F 27.2 °F 27.0 °F 75% 30.28 in 10.0 mi SW 8.1 mph - N/A   Overcast
5:53 AM 35.1 °F 25.5 °F 27.0 °F 72% 30.28 in 10.0 mi WSW 15.0 mph - N/A   Overcast
6:53 AM 35.1 °F 24.8 °F 27.0 °F 72% 30.28 in 10.0 mi WSW 17.3 mph 26.5 mph N/A   Overcast
7:53 AM 36.0 °F 25.3 °F 27.0 °F 70% 30.28 in 10.0 mi WSW 19.6 mph 26.5 mph N/A   Overcast
8:53 AM 37.0 °F 26.4 °F 28.0 °F 70% 30.28 in 10.0 mi WSW 20.7 mph 27.6 mph N/A   Clear
9:53 AM 39.0 °F 29.3 °F 28.9 °F 67% 30.28 in 10.0 mi WSW 19.6 mph 24.2 mph N/A   Clear
10:53 AM 39.0 °F 30.6 °F 28.9 °F 67% 30.29 in 10.0 mi WSW 15.0 mph 20.7 mph N/A   Overcast
11:53 AM 42.1 °F 32.6 °F 30.0 °F 62% 30.27 in 10.0 mi WSW 23.0 mph 29.9 mph N/A   Clear
12:53 PM 43.0 °F 34.8 °F 30.0 °F 60% 30.25 in 10.0 mi WSW 18.4 mph 25.3 mph N/A   Clear
1:53 PM 43.0 °F 34.8 °F 30.0 °F 60% 30.23 in 10.0 mi WSW 18.4 mph 28.8 mph N/A   Mostly Cloudy
2:53 PM 45.0 °F 37.6 °F 30.9 °F 58% 30.19 in 10.0 mi WSW 17.3 mph 28.8 mph N/A   Clear
3:53 PM 45.0 °F 38.9 °F 30.0 °F 56% 30.18 in 10.0 mi West 12.7 mph 26.5 mph N/A   Clear
4:53 PM 43.0 °F 35.1 °F 30.9 °F 62% 30.18 in 10.0 mi WSW 17.3 mph 21.9 mph N/A   Clear
5:53 PM 39.0 °F 30.6 °F 30.9 °F 73% 30.19 in 10.0 mi WSW 15.0 mph - N/A   Clear
6:53 PM 37.0 °F 28.5 °F 30.0 °F 76% 30.21 in 10.0 mi WSW 13.8 mph - N/A   Clear
7:53 PM 37.9 °F 30.0 °F 30.0 °F 73% 30.21 in 10.0 mi SW 12.7 mph - N/A   Overcast
8:53 PM 37.0 °F 28.1 °F 28.9 °F 73% 30.20 in 10.0 mi SW 15.0 mph - N/A   Overcast
9:53 PM 36.0 °F 25.3 °F 28.0 °F 73% 30.19 in 10.0 mi WSW 19.6 mph - N/A   Partly Cloudy
10:53 PM 36.0 °F 25.3 °F 28.0 °F 73% 30.20 in 10.0 mi WSW 19.6 mph 27.6 mph N/A   Clear
11:53 PM 36.0 °F 24.7 °F 28.0 °F 73% 30.19 in 10.0 mi WSW 21.9 mph 29.9 mph N/A   Scattered Clouds